This demonstration page uses our WeatherBlox Daily Observations layout. Learn more.

Left ArrowRight Arrow

39.12711, -84.51439

Hourly Observations for October 13, 2021

Temp ( °F °C ) Dew Point ( °F °C ) Humidity (%) Winds ( mph kmh ) Pressure ( in mb ) Visibility ( mi km ) Precip ( " mm )
12:49 am 00:49 Clear with Mist and Fog 57 14 57 14 100 100 Calm 30.05 1018 2 3 0.00 0.00
12:53 am 00:53 Clear with Mist and Fog 56 13.3 56 13.3 100 100 Calm 30.04 1017 2 2 0.00 0.00
12:58 am 00:58 Clear with Mist and Fog 55 12.8 55 12.8 100 100 Calm 30.05 1018 3 5 0.00 0.00
1:45 am 01:45 Clear with Mist and Fog 56 13.3 56 13.3 100 100 Calm 30.04 1017 1 2 0.00 0.00
1:53 am 01:53 Clear with Fog 55 12.8 55 12.8 100 100 Calm 30.03 1017 1 1 0.00 0.00
1:58 am 01:58 Clear with Mist and Fog 56 13.3 56 13.3 100 100 Calm 30.05 1018 2 3 0.00 0.00
2:05 am 02:05 Clear 56 13.3 56 13.3 100 100 Calm 30.05 1018 7 11 0.00 0.00
2:23 am 02:23 Clear with Mist and Fog 55 12.8 55 12.8 100 100 Calm 30.06 1018 2 2 0.00 0.00
2:31 am 02:31 Clear with Mist and Fog 55 12.8 55 12.8 100 100 Calm 30.06 1018 1 1 0.00 0.00
2:35 am 02:35 Clear with Mist and Fog 54 12.2 54 12.2 100 100 Calm 30.06 1018 2 3 0.00 0.00
2:43 am 02:43 Clear with Mist and Fog 54 12.2 54 12.2 100 100 Calm 30.05 1018 1 1 0.00 0.00
2:53 am 02:53 Clear with Mist and Fog 55 12.8 55 12.8 100 100 Calm 30.05 1018 1 1 0.00 0.00
3:01 am 03:01 Clear with Mist and Fog 55 12.8 55 12.8 100 100 Calm 30.06 1018 2 3 0.00 0.00
3:11 am 03:11 Mostly Cloudy with Mist and Fog 55 12.8 55 12.8 100 100 Calm 30.06 1018 1 1 0.00 0.00
3:18 am 03:18 Mostly Cloudy with Fog 53 11.7 53 11.7 100 100 Calm 30.06 1018 0 0 0.00 0.00
3:26 am 03:26 Mostly Cloudy with Fog 53 11.7 53 11.7 100 100 Calm 30.06 1018 0 0 0.00 0.00
3:37 am 03:37 Mostly Cloudy with Mist and Fog 54 12.2 54 12.2 100 100 Calm 30.05 1018 1 1 0.00 0.00
3:53 am 03:53 Mostly Cloudy with Fog 52 11.1 52 11.1 100 100 Calm 30.05 1018 0 0 0.00 0.00
4:14 am 04:14 Cloudy with Mist and Fog 54 12.2 54 12.2 100 100 Calm 30.06 1018 1 2 0.00 0.00
4:20 am 04:20 Cloudy with Mist and Fog 54 12.2 54 12.2 100 100 Calm 30.06 1018 4 6 0.00 0.00
4:28 am 04:28 Cloudy 54 12.2 54 12.2 100 100 Calm 30.06 1018 9 14 0.00 0.00
4:38 am 04:38 Cloudy with Mist and Fog 53 11.7 53 11.7 100 100 NE 3 6 30.06 1018 3 4 0.00 0.00
4:53 am 04:53 Cloudy 54 12.2 54 12.2 100 100 Calm 30.05 1018 9 14 0.00 0.00
5:25 am 05:25 Mostly Cloudy with Mist and Fog 54 12.2 54 12.2 100 100 SSW 3 6 30.07 1018 2 3 0.00 0.00
5:28 am 05:28 Mostly Cloudy with Mist and Fog 55 12.8 55 12.8 100 100 S 3 6 30.07 1018 1 1 0.00 0.00
5:39 am 05:39 Mostly Cloudy with Fog 56 13.3 56 13.3 100 100 Calm 30.07 1018 0 0 0.00 0.00
5:53 am 05:53 Mostly Cloudy with Fog 55 12.8 55 12.8 100 100 Calm 30.06 1018 0 0 0.00 0.00
6:20 am 06:20 Mostly Cloudy with Mist and Fog 55 12.8 55 12.8 100 100 ENE 3 6 30.07 1018 1 1 0.00 0.00
6:33 am 06:33 Cloudy with Mist and Fog 55 12.8 55 12.8 100 100 NE 3 6 30.06 1018 1 2 0.00 0.00
6:49 am 06:49 Mostly Cloudy with Mist and Fog 55 13 55 13 100 100 NNE 3 6 30.07 1018 2 3 0.00 0.00
6:53 am 06:53 Mostly Cloudy with Mist and Fog 55 12.8 55 12.8 100 100 Calm 30.06 1018 4 6 0.00 0.00
7:09 am 07:09 Mostly Cloudy with Mist and Fog 55 12.8 55 12.8 100 100 Calm 30.07 1018 2 3 0.00 0.00
7:53 am 07:53 Cloudy with Fog 55 12.8 55 12.8 100 100 Calm 30.07 1018 1 1 0.00 0.00
8:04 am 08:04 Mostly Cloudy with Fog 56 13.3 56 13.3 100 100 Calm 30.08 1019 0 0 0.00 0.00
8:53 am 08:53 Mostly Cloudy with Fog 57 13.9 57 13.9 100 100 Calm 30.08 1019 1 1 0.00 0.00
9:27 am 09:27 Cloudy with Mist and Fog 58 14.4 58 14.4 100 100 Calm 30.09 1019 1 1 0.00 0.00
9:34 am 09:34 Mostly Cloudy with Mist and Fog 58 14.4 58 14.4 100 100 Calm 30.09 1019 1 2 0.00 0.00
9:53 am 09:53 Mostly Cloudy with Mist and Fog 59 15 59 15 100 100 Calm 30.08 1019 1 2 0.00 0.00
10:19 am 10:19 Partly Cloudy with Mist and Fog 62 16.7 62 16.7 100 100 SSW 3 6 30.07 1018 3 5 0.00 0.00
10:53 am 10:53 Sunny 66 18.9 62 16.7 87 87 SSW 8 13 30.08 1019 10 16 0.00 0.00
11:53 am 11:53 Sunny 71 21.7 62 16.7 73 73 SSE 8 13 30.06 1018 10 16 0.00 0.00
12:53 pm 12:53 Sunny 74 23.3 61 16.1 64 64 SSE 6 9 30.04 1017 10 16 0.00 0.00
1:53 pm 13:53 Sunny 76 24.4 62 16.7 62 62 SSW 9 15 30.02 1017 10 16 0.00 0.00
2:53 pm 14:53 Sunny 75 23.9 62 16.7 64 64 SSE 8 13 30.00 1016 10 16 0.00 0.00
3:53 pm 15:53 Sunny 77 25 63 17.2 62 62 SSW 9 15 29.98 1015 10 16 0.00 0.00
4:53 pm 16:53 Sunny 74 23.3 65 18.3 74 74 S 8 13 29.99 1016 10 16 0.00 0.00
5:53 pm 17:53 Mostly Cloudy 73 22.8 66 18.9 79 79 S 6 9 30.00 1016 10 16 0.00 0.00
6:53 pm 18:53 Cloudy 73 22.8 65 18.3 76 76 Calm 30.01 1016 10 16 0.00 0.00
7:53 pm 19:53 Cloudy 69 20.6 68 20 96 96 Calm 30.01 1016 10 16 0.01 0.25
8:53 pm 20:53 Cloudy 69 20.6 68 20 96 96 Calm 30.00 1016 10 16 0.00 0.00
9:43 pm 21:43 Clear with Mist and Fog 67 19.4 67 19.4 100 100 Calm 29.98 1015 2 3 0.00 0.00
9:51 pm 21:51 Clear with Fog 66 19 66 19 100 100 Calm 29.98 1015 0 0 0.00 0.00
9:53 pm 21:53 Clear with Fog 66 18.9 66 18.9 100 100 Calm 29.98 1015 0 0 0.00 0.00
10:00 pm 22:00 Mostly Clear with Mist and Fog 67 19.4 67 19.4 100 100 Calm 29.98 1015 6 10 0.00 0.00
10:53 pm 22:53 Mostly Clear with Mist and Fog 67 19.4 67 19.4 100 100 Calm 29.98 1015 6 10 0.00 0.00
11:26 pm 23:26 Clear with Mist and Fog 65 18.3 65 18.3 100 100 Calm 29.98 1015 2 3 0.00 0.00
11:40 pm 23:40 Clear with Mist and Fog 65 18.3 65 18.3 100 100 Calm 29.99 1016 3 5 0.00 0.00
11:42 pm 23:42 Clear with Mist and Fog 65 18.3 65 18.3 100 100 Calm 29.99 1016 2 3 0.00 0.00
11:50 pm 23:50 Clear with Fog 64 18 64 18 100 100 SW 3 6 29.98 1015 0 0 0.00 0.00
11:51 pm 23:51 Clear with Fog 64 17.8 64 17.8 100 100 SW 3 6 29.98 1015 0 0 0.00 0.00

Powered by AerisWeather